Regional Weather Roundup
Issued by NWS

Home | Current Version | Previous Version | Text Only | Print | Product List | Glossary Off
Versions: 1 2 3 4 5 6 7 8 9 10 11 12 13 14 15 16 17 18 19 20 21 22 23 24 25 26 27 28 29 30 31 32 33 34 35 36 37 38 39 40 41 42 43 44 45 46 47 48 49 50

000
ASUS43 KOAX 232102
RWRNE

WEATHER ROUNDUP FOR NEBRASKA
NATIONAL WEATHER SERVICE OMAHA NE
300 PM CST SUN NOV 23 2014

NOTES: SATELLITE DATA IS BEING USED TO AUGMENT CLOUD COVER ABOVE
       12000 FEET.
       "FAIR" INDICATES FEW OR NO CLOUDS BELOW 12,000 FEET WITH NO
       SIGNIFICANT WEATHER AND/OR OBSTRUCTIONS TO VISIBILITY.

  * THESE STATIONS DO NOT REPORT WEATHER SUCH AS RAIN...SNOW OR FOG.

NEZ001>004-019>022-054>056-232200-
NEBRASKA PANHANDLE

CITY           SKY/WX    TMP DP  RH WIND       PRES   REMARKS
SCOTTSBLUFF    SUNNY     44  10  25 NW26G45   29.77R
ALLIANCE       SUNNY     42  14  32 NW29G48   29.72S
CHADRON        SUNNY     41  20  43 NW30G41   29.77S
KIMBALL        SUNNY     40  13  33 N24G35    29.73F WCI  30
SIDNEY         SUNNY     44  12  27 N29G39    29.74F
$$

NEZ057>060-069>072-079>082-232200-
SOUTHWEST NEBRASKA

CITY           SKY/WX    TMP DP  RH WIND       PRES   REMARKS
NORTH PLATTE   MOSUNNY   49  15  25 N21G33    29.64F
IMPERIAL       MOSUNNY   48   9  20 N32G45    29.69R
LEXINGTON      CLOUDY    49  19  30 N30G41    29.60F
MCCOOK         PTSUNNY   49  16  26 N22G38    29.64R
OGALLALA       SUNNY     48  15  27 N31G37    29.69S
$$

NEZ005>010-023>029-035>040-094-232200-
NORTH CENTRAL NEBRASKA

CITY           SKY/WX    TMP DP  RH WIND       PRES   REMARKS
VALENTINE      PTSUNNY   46  22  38 NW31G46   29.63F
AINSWORTH      MOSUNNY   44  22  42 NW24G37   29.62S
BROKEN BOW     PTSUNNY   49  19  30 NW32G46   29.59S
O`NEILL        CLOUDY    46  29  52 NW30G38   29.58S
ORD            CLOUDY    48  22  35 N18G33    29.57S
THEDFORD       MOSUNNY   48  19  31 NW32G41   29.64F
$$

NEZ041-046>049-061>064-073>077-083>087-232200-
SOUTH CENTRAL NEBRASKA

CITY           SKY/WX    TMP DP  RH WIND       PRES   REMARKS
AURORA         CLOUDY    44  34  68 N17G26    29.55R
HASTINGS       CLOUDY    44  30  57 N20G26    29.56S
HEBRON         CLOUDY    43  36  76 N16G24    29.54S
HOLDREGE       CLOUDY    46  20  35 N24G32    29.59S
KEARNEY *      CLOUDY    45  23  42 NW24G30   29.59F
YORK           CLOUDY    43  34  70 N16G24    29.54R
$$

NEZ011>018-030>034-042>045-232200-
NORTHEAST NEBRASKA

CITY           SKY/WX    TMP DP  RH WIND       PRES   REMARKS
NORFOLK        CLOUDY    45  31  58 N23G38    29.53R
ALBION         PTSUNNY   44  29  55 NW22G31   29.54S
BLAIR          DRIZZLE   43  36  76 N23G35    29.47S
COLUMBUS *     CLOUDY    43  32  65 NW20G25   29.55R
FREMONT        CLOUDY    44  38  77 NW18G25   29.52R
TEKAMAH        CLOUDY    44  36  73 N14       29.51S
WAYNE          CLOUDY    43  34  69 NW20G29   29.52R
$$

NEZ050>053-065>068-078-088>093-232200-
SOUTHEAST NEBRASKA

CITY           SKY/WX    TMP DP  RH WIND       PRES   REMARKS
LINCOLN        CLOUDY    43  36  76 N14       29.53R
OMAHA EPPLEY   LGT RAIN  45  37  73 N18G31    29.48S
BEATRICE       LGT RAIN  42  37  85 N20G32    29.51R
FALLS CITY     CLOUDY    46  40  79 N22G33    29.41S
NEBRASKA CITY  CLOUDY    45  37  76 N22G29    29.45S
PLATTSMOUTH    CLOUDY    45  37  73 NW22G29   29.46R
$$

NEZ044-045-051>053-067-232200-
OMAHA AREA

CITY           SKY/WX    TMP DP  RH WIND       PRES   REMARKS
OMAHA EPPLEY   LGT RAIN  45  37  73 N18G31    29.48S
BLAIR          DRIZZLE   43  36  76 N23G35    29.47S
FREMONT        CLOUDY    44  38  77 NW18G25   29.52R
MILLARD        CLOUDY    44  36  72 NW12G26   29.50R
OFFUTT AFB     CLOUDY    46  36  69 NW15G29   29.47R
PLATTSMOUTH    CLOUDY    45  37  73 NW22G29   29.46R
WAHOO          CLOUDY    43  36  74 NW16G24   29.52R
$$


USA.gov is the U.S. government's official web portal to all federal, state and local government web resources and services.